Location: ?
(35.4064°N, 139.3593°E)
Time: 13:50:06
(UTC+00:00)

Cosmos 1340 - Pass Details

Date: 18 April 2024
Orbit: 438 x 439 km, 81.2° (Epoch: 17 May)

Event Time Altitude Azimuth Distance (km) Brightness Sun altitude
Rises 17:43:48 0° 358° (N) 2,431 6.6 -26.6°
Reaches altitude 10° 17:45:55 10° 4° (N) 1,558 5.6 -26.3°
Enters shadow 17:47:52 29° 24° (NNE) 837 4.2 -26.0°
